Year,Month,Day,Hour,Minute,Value (Times are PST for temperature in C)
2013,08,15,00,00,14.50
2013,08,15,00,01,14.50
2013,08,15,00,02,14.50
2013,08,15,00,03,14.60
2013,08,15,00,04,14.60
2013,08,15,00,05,14.60
2013,08,15,00,06,14.60
2013,08,15,00,07,14.60
2013,08,15,00,08,14.60
2013,08,15,00,09,14.60
2013,08,15,00,10,14.60
2013,08,15,00,11,14.60
2013,08,15,00,12,14.60
2013,08,15,00,13,14.70
2013,08,15,00,14,14.70
2013,08,15,00,15,14.70
2013,08,15,00,16,14.70
2013,08,15,00,17,14.70
2013,08,15,00,18,14.70
2013,08,15,00,19,14.70
2013,08,15,00,20,14.70
2013,08,15,00,21,14.70
2013,08,15,00,22,14.80
2013,08,15,00,23,14.80
2013,08,15,00,24,14.80
2013,08,15,00,25,14.80
2013,08,15,00,26,14.80
2013,08,15,00,27,14.80
2013,08,15,00,28,14.80
2013,08,15,00,29,14.80
2013,08,15,00,30,14.80
2013,08,15,00,31,14.80
2013,08,15,00,32,14.80
2013,08,15,00,33,14.80
2013,08,15,00,34,14.80
2013,08,15,00,35,14.80
2013,08,15,00,36,14.80
2013,08,15,00,37,14.80
2013,08,15,00,38,14.80
2013,08,15,00,39,14.80
2013,08,15,00,40,14.80
2013,08,15,00,41,14.70
2013,08,15,00,42,14.70
2013,08,15,00,43,14.70
2013,08,15,00,44,14.70
2013,08,15,00,45,14.70
2013,08,15,00,46,14.70
2013,08,15,00,47,14.70
2013,08,15,00,48,14.70
2013,08,15,00,49,14.70
2013,08,15,00,50,14.70
2013,08,15,00,51,14.70
2013,08,15,00,52,14.70
2013,08,15,00,53,14.70
2013,08,15,00,54,14.70
2013,08,15,00,55,14.70
2013,08,15,00,56,14.70
2013,08,15,00,57,14.60
2013,08,15,00,58,14.60
2013,08,15,00,59,14.60
2013,08,15,01,00,14.60
2013,08,15,01,01,14.60
2013,08,15,01,02,14.60
2013,08,15,01,03,14.60
2013,08,15,01,04,14.60
2013,08,15,01,05,14.60
2013,08,15,01,06,14.60
2013,08,15,01,07,14.60
2013,08,15,01,08,14.60
2013,08,15,01,09,14.60
2013,08,15,01,10,14.60
2013,08,15,01,11,14.60
2013,08,15,01,12,14.60
2013,08,15,01,13,14.60
2013,08,15,01,14,14.60
2013,08,15,01,15,14.60
2013,08,15,01,16,14.60
2013,08,15,01,17,14.60
2013,08,15,01,18,14.60
2013,08,15,01,19,14.60
2013,08,15,01,20,14.60
2013,08,15,01,21,14.60
2013,08,15,01,22,14.70
2013,08,15,01,23,14.70
2013,08,15,01,24,14.70
2013,08,15,01,25,14.70
2013,08,15,01,26,14.70
2013,08,15,01,27,14.70
2013,08,15,01,28,14.70
2013,08,15,01,29,14.70
2013,08,15,01,30,14.70
2013,08,15,01,31,14.70
2013,08,15,01,32,14.70
2013,08,15,01,33,14.70
2013,08,15,01,34,14.70
2013,08,15,01,35,14.70
2013,08,15,01,36,14.70
2013,08,15,01,37,14.70
2013,08,15,01,38,14.70
2013,08,15,01,39,14.70
2013,08,15,01,40,14.70
2013,08,15,01,41,14.70
2013,08,15,01,42,14.70
2013,08,15,01,43,14.70
2013,08,15,01,44,14.70
2013,08,15,01,45,14.70
2013,08,15,01,46,14.70
2013,08,15,01,47,14.70
2013,08,15,01,48,14.70
2013,08,15,01,49,14.70
2013,08,15,01,50,14.70
2013,08,15,01,51,14.70
2013,08,15,01,52,14.70
2013,08,15,01,53,14.60
2013,08,15,01,54,14.60
2013,08,15,01,55,14.60
2013,08,15,01,56,14.60
2013,08,15,01,57,14.60
2013,08,15,01,58,14.60
2013,08,15,01,59,14.60
2013,08,15,02,00,14.60
2013,08,15,02,01,14.60
2013,08,15,02,02,14.60
2013,08,15,02,03,14.60
2013,08,15,02,04,14.60
2013,08,15,02,05,14.60
2013,08,15,02,06,14.60
2013,08,15,02,07,14.60
2013,08,15,02,08,14.60
2013,08,15,02,09,14.60
2013,08,15,02,10,14.60
2013,08,15,02,11,14.60
2013,08,15,02,12,14.60
2013,08,15,02,13,14.60
2013,08,15,02,14,14.50
2013,08,15,02,15,14.50
2013,08,15,02,16,14.50
2013,08,15,02,17,14.50
2013,08,15,02,18,14.40
2013,08,15,02,19,14.40
2013,08,15,02,20,14.40
2013,08,15,02,21,14.40
2013,08,15,02,22,14.30
2013,08,15,02,23,14.30
2013,08,15,02,24,14.30
2013,08,15,02,25,14.30
2013,08,15,02,26,14.30
2013,08,15,02,27,14.20
2013,08,15,02,28,14.20
2013,08,15,02,29,14.20
2013,08,15,02,30,14.20
2013,08,15,02,31,14.20
2013,08,15,02,32,14.20
2013,08,15,02,33,14.20
2013,08,15,02,34,14.20
2013,08,15,02,35,14.20
2013,08,15,02,36,14.20
2013,08,15,02,37,14.20
2013,08,15,02,38,14.20
2013,08,15,02,39,14.20
2013,08,15,02,40,14.20
2013,08,15,02,41,14.20
2013,08,15,02,42,14.20
2013,08,15,02,43,14.20
2013,08,15,02,44,14.20
2013,08,15,02,45,14.10
2013,08,15,02,46,14.10
2013,08,15,02,47,14.10
2013,08,15,02,48,14.10
2013,08,15,02,49,14.10
2013,08,15,02,50,14.10
2013,08,15,02,51,14.10
2013,08,15,02,52,14.10
2013,08,15,02,53,14.10
2013,08,15,02,54,14.00
2013,08,15,02,55,14.00
2013,08,15,02,56,14.00
2013,08,15,02,57,14.00
2013,08,15,02,58,14.00
2013,08,15,02,59,13.90
2013,08,15,03,00,13.90
2013,08,15,03,01,13.90
2013,08,15,03,02,13.90
2013,08,15,03,03,13.90
2013,08,15,03,04,13.90
2013,08,15,03,05,13.80
2013,08,15,03,06,13.80
2013,08,15,03,07,13.80
2013,08,15,03,08,13.80
2013,08,15,03,09,13.80
2013,08,15,03,10,13.80
2013,08,15,03,11,13.80
2013,08,15,03,12,13.80
2013,08,15,03,13,13.80
2013,08,15,03,14,13.80
2013,08,15,03,15,13.80
2013,08,15,03,16,13.80
2013,08,15,03,17,13.80
2013,08,15,03,18,13.80
2013,08,15,03,19,13.80
2013,08,15,03,20,13.80
2013,08,15,03,21,13.80
2013,08,15,03,22,13.70
2013,08,15,03,23,13.70
2013,08,15,03,24,13.70
2013,08,15,03,25,13.70
2013,08,15,03,26,13.70
2013,08,15,03,27,13.60
2013,08,15,03,28,13.60
2013,08,15,03,29,13.60
2013,08,15,03,30,13.60
2013,08,15,03,31,13.60
2013,08,15,03,32,13.60
2013,08,15,03,33,13.60
2013,08,15,03,34,13.50
2013,08,15,03,35,13.50
2013,08,15,03,36,13.50
2013,08,15,03,37,13.50
2013,08,15,03,38,13.40
2013,08,15,03,39,13.40
2013,08,15,03,40,13.40
2013,08,15,03,41,13.40
2013,08,15,03,42,13.30
2013,08,15,03,43,13.30
2013,08,15,03,44,13.30
2013,08,15,03,45,13.20
2013,08,15,03,46,13.20
2013,08,15,03,47,13.20
2013,08,15,03,48,13.20
2013,08,15,03,49,13.10
2013,08,15,03,50,13.10
2013,08,15,03,51,13.10
2013,08,15,03,52,13.10
2013,08,15,03,53,13.10
2013,08,15,03,54,13.10
2013,08,15,03,55,13.10
2013,08,15,03,56,13.10
2013,08,15,03,57,13.10
2013,08,15,03,58,13.10
2013,08,15,03,59,13.10
2013,08,15,04,00,13.10
2013,08,15,04,01,13.10
2013,08,15,04,02,13.10
2013,08,15,04,03,13.10
2013,08,15,04,04,13.00
2013,08,15,04,05,13.00
2013,08,15,04,06,13.00
2013,08,15,04,07,12.90
2013,08,15,04,08,12.90
2013,08,15,04,09,12.90
2013,08,15,04,10,12.90
2013,08,15,04,11,12.80
2013,08,15,04,12,12.80
2013,08,15,04,13,12.80
2013,08,15,04,14,12.80
2013,08,15,04,15,12.80
2013,08,15,04,16,12.80
2013,08,15,04,17,12.80
2013,08,15,04,18,12.80
2013,08,15,04,19,12.80
2013,08,15,04,20,12.80
2013,08,15,04,21,12.80
2013,08,15,04,22,12.80
2013,08,15,04,23,12.80
2013,08,15,04,24,12.80
2013,08,15,04,25,12.80
2013,08,15,04,26,12.80
2013,08,15,04,27,12.80
2013,08,15,04,28,12.80
2013,08,15,04,29,12.80
2013,08,15,04,30,12.80
2013,08,15,04,31,12.80
2013,08,15,04,32,12.80
2013,08,15,04,33,12.80
2013,08,15,04,34,12.80
2013,08,15,04,35,12.80
2013,08,15,04,36,12.80
2013,08,15,04,37,12.80
2013,08,15,04,38,12.80
2013,08,15,04,39,12.70
2013,08,15,04,40,12.70
2013,08,15,04,41,12.70
2013,08,15,04,42,12.70
2013,08,15,04,43,12.70
2013,08,15,04,44,12.70
2013,08,15,04,45,12.70
2013,08,15,04,46,12.70
2013,08,15,04,47,12.70
2013,08,15,04,48,12.70
2013,08,15,04,49,12.70
2013,08,15,04,50,12.70
2013,08,15,04,51,12.70
2013,08,15,04,52,12.70
2013,08,15,04,53,12.70
2013,08,15,04,54,12.70
2013,08,15,04,55,12.70
2013,08,15,04,56,12.70
2013,08,15,04,57,12.70
2013,08,15,04,58,12.70
2013,08,15,04,59,12.70
2013,08,15,05,00,12.70
2013,08,15,05,01,12.80
2013,08,15,05,02,12.80
2013,08,15,05,03,12.80
2013,08,15,05,04,12.80
2013,08,15,05,05,12.80
2013,08,15,05,06,12.80
2013,08,15,05,07,12.80
2013,08,15,05,08,12.80
2013,08,15,05,09,12.80
2013,08,15,05,10,12.80
2013,08,15,05,11,12.80
2013,08,15,05,12,12.90
2013,08,15,05,13,12.90
2013,08,15,05,14,12.90
2013,08,15,05,15,12.90
2013,08,15,05,16,12.90
2013,08,15,05,17,12.90
2013,08,15,05,18,12.90
2013,08,15,05,19,12.90
2013,08,15,05,20,12.90
2013,08,15,05,21,12.90
2013,08,15,05,22,12.90
2013,08,15,05,23,12.90
2013,08,15,05,24,13.00
2013,08,15,05,25,13.00
2013,08,15,05,26,13.00
2013,08,15,05,27,13.00
2013,08,15,05,28,13.00
2013,08,15,05,29,13.00
2013,08,15,05,30,13.00
2013,08,15,05,31,13.00
2013,08,15,05,32,13.00
2013,08,15,05,33,13.00
2013,08,15,05,34,13.00
2013,08,15,05,35,13.00
2013,08,15,05,36,13.00
2013,08,15,05,37,13.00
2013,08,15,05,38,13.10
2013,08,15,05,39,13.10
2013,08,15,05,40,13.10
2013,08,15,05,41,13.10
2013,08,15,05,42,13.10
2013,08,15,05,43,13.10
2013,08,15,05,44,13.10
2013,08,15,05,45,13.20
2013,08,15,05,46,13.20
2013,08,15,05,47,13.20
2013,08,15,05,48,13.20
2013,08,15,05,49,13.20
2013,08,15,05,50,13.20
2013,08,15,05,51,13.20
2013,08,15,05,52,13.30
2013,08,15,05,53,13.30
2013,08,15,05,54,13.30
2013,08,15,05,55,13.30
2013,08,15,05,56,13.30
2013,08,15,05,57,13.30
2013,08,15,05,58,13.30
2013,08,15,05,59,13.30
2013,08,15,06,00,13.30
2013,08,15,06,01,13.30
2013,08,15,06,02,13.30
2013,08,15,06,03,13.30
2013,08,15,06,04,13.30
2013,08,15,06,05,13.30
2013,08,15,06,06,13.30
2013,08,15,06,07,13.40
2013,08,15,06,08,13.40
2013,08,15,06,09,13.40
2013,08,15,06,10,13.40
2013,08,15,06,11,13.40
2013,08,15,06,12,13.40
2013,08,15,06,13,13.40
2013,08,15,06,14,13.50
2013,08,15,06,15,13.50
2013,08,15,06,16,13.50
2013,08,15,06,17,13.50
2013,08,15,06,18,13.50
2013,08,15,06,19,13.50
2013,08,15,06,20,13.50
2013,08,15,06,21,13.60
2013,08,15,06,22,13.50
2013,08,15,06,23,13.60
2013,08,15,06,24,13.50
2013,08,15,06,25,13.50
2013,08,15,06,26,13.40
2013,08,15,06,27,13.40
2013,08,15,06,28,13.40
2013,08,15,06,29,13.40
2013,08,15,06,30,13.40
2013,08,15,06,31,13.40
2013,08,15,06,32,13.40
2013,08,15,06,33,13.40
2013,08,15,06,34,13.40
2013,08,15,06,35,13.40
2013,08,15,06,36,13.40
2013,08,15,06,37,13.40
2013,08,15,06,38,13.40
2013,08,15,06,39,13.40
2013,08,15,06,40,13.40
2013,08,15,06,41,13.40
2013,08,15,06,42,13.50
2013,08,15,06,43,13.50
2013,08,15,06,44,13.50
2013,08,15,06,45,13.50
2013,08,15,06,46,13.50
2013,08,15,06,47,13.60
2013,08,15,06,48,13.60
2013,08,15,06,49,13.60
2013,08,15,06,50,13.60
2013,08,15,06,51,13.60
2013,08,15,06,52,13.60
2013,08,15,06,53,13.60
2013,08,15,06,54,13.70
2013,08,15,06,55,13.70
2013,08,15,06,56,13.70
2013,08,15,06,57,13.70
2013,08,15,06,58,13.70
2013,08,15,06,59,13.70
2013,08,15,07,00,13.70
2013,08,15,07,01,13.80
2013,08,15,07,02,13.80
2013,08,15,07,03,13.80
2013,08,15,07,04,13.80
2013,08,15,07,05,13.90
2013,08,15,07,06,13.90
2013,08,15,07,07,13.90
2013,08,15,07,08,13.90
2013,08,15,07,09,13.90
2013,08,15,07,10,13.90
2013,08,15,07,11,14.00
2013,08,15,07,12,14.00
2013,08,15,07,13,14.00
2013,08,15,07,14,14.00
2013,08,15,07,15,14.00
2013,08,15,07,16,14.00
2013,08,15,07,17,14.10
2013,08,15,07,18,14.10
2013,08,15,07,19,14.10
2013,08,15,07,20,14.10
2013,08,15,07,21,14.10
2013,08,15,07,22,14.10
2013,08,15,07,23,14.10
2013,08,15,07,24,14.10
2013,08,15,07,25,14.10
2013,08,15,07,26,14.10
2013,08,15,07,27,14.10
2013,08,15,07,28,14.10
2013,08,15,07,29,14.20
2013,08,15,07,30,14.20
2013,08,15,07,31,14.20
2013,08,15,07,32,14.20
2013,08,15,07,33,14.20
2013,08,15,07,34,14.20
2013,08,15,07,35,14.20
2013,08,15,07,36,14.20
2013,08,15,07,37,14.20
2013,08,15,07,38,14.20
2013,08,15,07,39,14.30
2013,08,15,07,40,14.30
2013,08,15,07,41,14.30
2013,08,15,07,42,14.30
2013,08,15,07,43,14.30
2013,08,15,07,44,14.30
2013,08,15,07,45,14.40
2013,08,15,07,46,14.40
2013,08,15,07,47,14.40
2013,08,15,07,48,14.50
2013,08,15,07,49,14.50
2013,08,15,07,50,14.50
2013,08,15,07,51,14.50
2013,08,15,07,52,14.50
2013,08,15,07,53,14.60
2013,08,15,07,54,14.60
2013,08,15,07,55,14.60
2013,08,15,07,56,14.60
2013,08,15,07,57,14.70
2013,08,15,07,58,14.70
2013,08,15,07,59,14.70
2013,08,15,08,00,14.70
2013,08,15,08,01,14.70
2013,08,15,08,02,14.70
2013,08,15,08,03,14.70
2013,08,15,08,04,14.80
2013,08,15,08,05,14.80
2013,08,15,08,06,14.80
2013,08,15,08,07,14.80
2013,08,15,08,08,14.70
2013,08,15,08,09,14.70
2013,08,15,08,10,14.70
2013,08,15,08,11,14.70
2013,08,15,08,12,14.70
2013,08,15,08,13,14.70
2013,08,15,08,14,14.80
2013,08,15,08,15,14.80
2013,08,15,08,16,14.80
2013,08,15,08,17,14.80
2013,08,15,08,18,14.80
2013,08,15,08,19,14.80
2013,08,15,08,20,14.80
2013,08,15,08,21,14.80
2013,08,15,08,22,14.80
2013,08,15,08,23,14.90
2013,08,15,08,24,14.90
2013,08,15,08,25,15.00
2013,08,15,08,26,15.00
2013,08,15,08,27,15.00
2013,08,15,08,28,15.00
2013,08,15,08,29,15.00
2013,08,15,08,30,15.00
2013,08,15,08,31,15.00
2013,08,15,08,32,15.00
2013,08,15,08,33,15.00
2013,08,15,08,34,15.00
2013,08,15,08,35,15.00
2013,08,15,08,36,15.00
2013,08,15,08,37,15.00
2013,08,15,08,38,15.00
2013,08,15,08,39,15.00
2013,08,15,08,40,15.00
2013,08,15,08,41,15.00
2013,08,15,08,42,15.00
2013,08,15,08,43,15.00
2013,08,15,08,44,15.00
2013,08,15,08,45,15.00
2013,08,15,08,46,15.00
2013,08,15,08,47,15.00
2013,08,15,08,48,15.00
2013,08,15,08,49,15.00
2013,08,15,08,50,15.00
2013,08,15,08,51,15.00
2013,08,15,08,52,15.00
2013,08,15,08,53,15.00
2013,08,15,08,54,15.00
2013,08,15,08,55,15.00
2013,08,15,08,56,15.00
2013,08,15,08,57,15.00
2013,08,15,08,58,15.00
2013,08,15,08,59,15.00
2013,08,15,09,00,15.00
2013,08,15,09,01,15.00
2013,08,15,09,02,15.00
2013,08,15,09,03,15.00
2013,08,15,09,04,15.00
2013,08,15,09,05,15.00
2013,08,15,09,06,15.00
2013,08,15,09,07,15.00
2013,08,15,09,08,15.00
2013,08,15,09,09,15.00
2013,08,15,09,10,15.00
2013,08,15,09,11,15.00
2013,08,15,09,12,15.00
2013,08,15,09,13,15.00
2013,08,15,09,14,15.00
2013,08,15,09,15,15.10
2013,08,15,09,16,15.20
2013,08,15,09,17,15.20
2013,08,15,09,18,15.20
2013,08,15,09,19,15.20
2013,08,15,09,20,15.20
2013,08,15,09,21,15.20
2013,08,15,09,22,15.30
2013,08,15,09,23,15.30
2013,08,15,09,24,15.30
2013,08,15,09,25,15.30
2013,08,15,09,26,15.30
2013,08,15,09,27,15.30
2013,08,15,09,28,15.30
2013,08,15,09,29,15.30
2013,08,15,09,30,15.40
2013,08,15,09,31,15.40
2013,08,15,09,32,15.40
2013,08,15,09,33,15.40
2013,08,15,09,34,15.40
2013,08,15,09,35,15.40
2013,08,15,09,36,15.50
2013,08,15,09,37,15.50
2013,08,15,09,38,15.50
2013,08,15,09,39,15.60
2013,08,15,09,40,15.60
2013,08,15,09,41,15.60
2013,08,15,09,42,15.70
2013,08,15,09,43,15.70
2013,08,15,09,44,15.70
2013,08,15,09,45,15.70
2013,08,15,09,46,15.80
2013,08,15,09,47,15.80
2013,08,15,09,48,15.80
2013,08,15,09,49,15.80
2013,08,15,09,50,15.80
2013,08,15,09,51,15.80
2013,08,15,09,52,15.80
2013,08,15,09,53,15.80
2013,08,15,09,54,15.80
2013,08,15,09,55,15.80
2013,08,15,09,56,15.90
2013,08,15,09,57,15.90
2013,08,15,09,58,15.90
2013,08,15,09,59,15.90
2013,08,15,10,00,16.00
2013,08,15,10,01,16.00
2013,08,15,10,02,16.00
2013,08,15,10,03,16.00
2013,08,15,10,04,16.10
2013,08,15,10,05,16.10
2013,08,15,10,06,16.10
2013,08,15,10,07,16.10
2013,08,15,10,08,16.20
2013,08,15,10,09,16.20
2013,08,15,10,10,16.20
2013,08,15,10,11,16.30
2013,08,15,10,12,16.30
2013,08,15,10,13,16.30
2013,08,15,10,14,16.40
2013,08,15,10,15,16.40
2013,08,15,10,16,16.40
2013,08,15,10,17,16.50
2013,08,15,10,18,16.60
2013,08,15,10,19,16.60
2013,08,15,10,20,16.70
2013,08,15,10,21,16.70
2013,08,15,10,22,16.80
2013,08,15,10,23,16.80
2013,08,15,10,24,16.80
2013,08,15,10,25,16.90
2013,08,15,10,26,16.90
2013,08,15,10,27,16.90
2013,08,15,10,28,17.00
2013,08,15,10,29,17.00
2013,08,15,10,30,17.00
2013,08,15,10,31,17.10
2013,08,15,10,32,17.10
2013,08,15,10,33,17.20
2013,08,15,10,34,17.20
2013,08,15,10,35,17.20
2013,08,15,10,36,17.20
2013,08,15,10,37,17.20
2013,08,15,10,38,17.20
2013,08,15,10,39,17.20
2013,08,15,10,40,17.30
2013,08,15,10,41,17.30
2013,08,15,10,42,17.30
2013,08,15,10,43,17.40
2013,08,15,10,44,17.40
2013,08,15,10,45,17.50
2013,08,15,10,46,17.60
2013,08,15,10,47,17.60
2013,08,15,10,48,17.70
2013,08,15,10,49,17.70
2013,08,15,10,50,17.70
2013,08,15,10,51,17.80
2013,08,15,10,52,17.80
2013,08,15,10,53,17.90
2013,08,15,10,54,18.00
2013,08,15,10,55,18.00
2013,08,15,10,56,18.10
2013,08,15,10,57,18.20
2013,08,15,10,58,18.20
2013,08,15,10,59,18.30
2013,08,15,11,00,18.40
2013,08,15,11,01,18.50
2013,08,15,11,02,18.60
2013,08,15,11,03,18.60
2013,08,15,11,04,18.70
2013,08,15,11,05,18.80
2013,08,15,11,06,18.80
2013,08,15,11,07,18.80
2013,08,15,11,08,18.90
2013,08,15,11,09,18.90
2013,08,15,11,10,19.00
2013,08,15,11,11,19.00
2013,08,15,11,12,19.10
2013,08,15,11,13,19.10
2013,08,15,11,14,19.20
2013,08,15,11,15,19.20
2013,08,15,11,16,19.20
2013,08,15,11,17,19.20
2013,08,15,11,18,19.30
2013,08,15,11,19,19.30
2013,08,15,11,20,19.40
2013,08,15,11,21,19.40
2013,08,15,11,22,19.40
2013,08,15,11,23,19.30
2013,08,15,11,24,19.30
2013,08,15,11,25,19.30
2013,08,15,11,26,19.30
2013,08,15,11,27,19.30
2013,08,15,11,28,19.30
2013,08,15,11,29,19.40
2013,08,15,11,30,19.40
2013,08,15,11,31,19.40
2013,08,15,11,32,19.40
2013,08,15,11,33,19.40
2013,08,15,11,34,19.40
2013,08,15,11,35,19.40
2013,08,15,11,36,19.40
2013,08,15,11,37,19.40
2013,08,15,11,38,19.40
2013,08,15,11,39,19.30
2013,08,15,11,40,19.30
2013,08,15,11,41,19.30
2013,08,15,11,42,19.30
2013,08,15,11,43,19.30
2013,08,15,11,44,19.30
2013,08,15,11,45,19.30
2013,08,15,11,46,19.30
2013,08,15,11,47,19.30
2013,08,15,11,48,19.30
2013,08,15,11,49,19.40
2013,08,15,11,50,19.40
2013,08,15,11,51,19.40
2013,08,15,11,52,19.50
2013,08,15,11,53,19.60
2013,08,15,11,54,19.70
2013,08,15,11,55,19.70
2013,08,15,11,56,19.80
2013,08,15,11,57,19.80
2013,08,15,11,58,19.90
2013,08,15,11,59,20.00
2013,08,15,12,00,20.10
2013,08,15,12,01,20.10
2013,08,15,12,02,20.10
2013,08,15,12,03,20.10
2013,08,15,12,04,20.10
2013,08,15,12,05,20.20
2013,08,15,12,06,20.20
2013,08,15,12,07,20.20
2013,08,15,12,08,20.20
2013,08,15,12,09,20.20
2013,08,15,12,10,20.20
2013,08,15,12,11,20.20
2013,08,15,12,12,20.30
2013,08,15,12,13,20.30
2013,08,15,12,14,20.30
2013,08,15,12,15,20.40
2013,08,15,12,16,20.40
2013,08,15,12,17,20.40
2013,08,15,12,18,20.50
2013,08,15,12,19,20.50
2013,08,15,12,20,20.50
2013,08,15,12,21,20.60
2013,08,15,12,22,20.60
2013,08,15,12,23,20.60
2013,08,15,12,24,20.60
2013,08,15,12,25,20.70
2013,08,15,12,26,20.60
2013,08,15,12,27,20.60
2013,08,15,12,28,20.60
2013,08,15,12,29,20.60
2013,08,15,12,30,20.70
2013,08,15,12,31,20.80
2013,08,15,12,32,20.80
2013,08,15,12,33,20.70
2013,08,15,12,34,20.70
2013,08,15,12,35,20.70
2013,08,15,12,36,20.60
2013,08,15,12,37,20.60
2013,08,15,12,38,20.60
2013,08,15,12,39,20.70
2013,08,15,12,40,20.70
2013,08,15,12,41,20.70
2013,08,15,12,42,20.70
2013,08,15,12,43,20.80
2013,08,15,12,44,20.80
2013,08,15,12,45,20.70
2013,08,15,12,46,20.70
2013,08,15,12,47,20.80
2013,08,15,12,48,20.80
2013,08,15,12,49,20.80
2013,08,15,12,50,20.80
2013,08,15,12,51,20.80
2013,08,15,12,52,20.80
2013,08,15,12,53,20.90
2013,08,15,12,54,20.90
2013,08,15,12,55,20.80
2013,08,15,12,56,20.80
2013,08,15,12,57,20.80
2013,08,15,12,58,20.80
2013,08,15,12,59,20.90
2013,08,15,13,00,20.90
2013,08,15,13,01,20.90
2013,08,15,13,02,20.80
2013,08,15,13,03,20.90
2013,08,15,13,04,20.90
2013,08,15,13,05,20.90
2013,08,15,13,06,20.90
2013,08,15,13,07,20.80
2013,08,15,13,08,20.90
2013,08,15,13,09,20.90
2013,08,15,13,10,20.90
2013,08,15,13,11,20.90
2013,08,15,13,12,20.90
2013,08,15,13,13,20.80
2013,08,15,13,14,20.80
2013,08,15,13,15,20.80
2013,08,15,13,16,20.80
2013,08,15,13,17,20.70
2013,08,15,13,18,20.70
2013,08,15,13,19,20.60
2013,08,15,13,20,20.60
2013,08,15,13,21,20.50
2013,08,15,13,22,20.50
2013,08,15,13,23,20.40
2013,08,15,13,24,20.30
2013,08,15,13,25,20.30
2013,08,15,13,26,20.30
2013,08,15,13,27,20.30
2013,08,15,13,28,20.30
2013,08,15,13,29,20.30
2013,08,15,13,30,20.30
2013,08,15,13,31,20.30
2013,08,15,13,32,20.30
2013,08,15,13,33,20.30
2013,08,15,13,34,20.30
2013,08,15,13,35,20.30
2013,08,15,13,36,20.30
2013,08,15,13,37,20.30
2013,08,15,13,38,20.20
2013,08,15,13,39,20.10
2013,08,15,13,40,20.10
2013,08,15,13,41,20.00
2013,08,15,13,42,20.10
2013,08,15,13,43,20.10
2013,08,15,13,44,20.20
2013,08,15,13,45,20.20
2013,08,15,13,46,20.20
2013,08,15,13,47,20.20
2013,08,15,13,48,20.20
2013,08,15,13,49,20.20
2013,08,15,13,50,20.20
2013,08,15,13,51,20.20
2013,08,15,13,52,20.20
2013,08,15,13,53,20.20
2013,08,15,13,54,20.20
2013,08,15,13,55,20.20
2013,08,15,13,56,20.20
2013,08,15,13,57,20.20
2013,08,15,13,58,20.20
2013,08,15,13,59,20.20
2013,08,15,14,00,20.20
2013,08,15,14,01,20.30
2013,08,15,14,02,20.30
2013,08,15,14,03,20.30
2013,08,15,14,04,20.30
2013,08,15,14,05,20.30
2013,08,15,14,06,20.30
2013,08,15,14,07,20.30
2013,08,15,14,08,20.30
2013,08,15,14,09,20.30
2013,08,15,14,10,20.30
2013,08,15,14,11,20.20
2013,08,15,14,12,20.20
2013,08,15,14,13,20.20
2013,08,15,14,14,20.20
2013,08,15,14,15,20.20
2013,08,15,14,16,20.20
2013,08,15,14,17,20.30
2013,08,15,14,18,20.20
2013,08,15,14,19,20.20
2013,08,15,14,20,20.20
2013,08,15,14,21,20.20
2013,08,15,14,22,20.20
2013,08,15,14,23,20.20
2013,08,15,14,24,20.20
2013,08,15,14,25,20.20
2013,08,15,14,26,20.10
2013,08,15,14,27,20.00
2013,08,15,14,28,20.00
2013,08,15,14,29,19.90
2013,08,15,14,30,19.90
2013,08,15,14,31,19.90
2013,08,15,14,32,19.90
2013,08,15,14,33,19.80
2013,08,15,14,34,19.80
2013,08,15,14,35,19.70
2013,08,15,14,36,19.70
2013,08,15,14,37,19.60
2013,08,15,14,38,19.60
2013,08,15,14,39,19.50
2013,08,15,14,40,19.50
2013,08,15,14,41,19.40
2013,08,15,14,42,19.40
2013,08,15,14,43,19.30
2013,08,15,14,44,19.30
2013,08,15,14,45,19.30
2013,08,15,14,46,19.20
2013,08,15,14,47,19.20
2013,08,15,14,48,19.10
2013,08,15,14,49,19.00
2013,08,15,14,50,19.00
2013,08,15,14,51,18.90
2013,08,15,14,52,18.80
2013,08,15,14,53,18.80
2013,08,15,14,54,18.70
2013,08,15,14,55,18.70
2013,08,15,14,56,18.70
2013,08,15,14,57,18.60
2013,08,15,14,58,18.60
2013,08,15,14,59,18.50
2013,08,15,15,00,18.50
2013,08,15,15,01,18.40
2013,08,15,15,02,18.40
2013,08,15,15,03,18.30
2013,08,15,15,04,18.30
2013,08,15,15,05,18.20
2013,08,15,15,06,18.20
2013,08,15,15,07,18.10
2013,08,15,15,08,18.10
2013,08,15,15,09,18.00
2013,08,15,15,10,17.90
2013,08,15,15,11,17.90
2013,08,15,15,12,17.90
2013,08,15,15,13,17.80
2013,08,15,15,14,17.80
2013,08,15,15,15,17.80
2013,08,15,15,16,17.80
2013,08,15,15,17,17.80
2013,08,15,15,18,17.80
2013,08,15,15,19,17.70
2013,08,15,15,20,17.70
2013,08,15,15,21,17.60
2013,08,15,15,22,17.60
2013,08,15,15,23,17.60
2013,08,15,15,24,17.50
2013,08,15,15,25,17.50
2013,08,15,15,26,17.40
2013,08,15,15,27,17.40
2013,08,15,15,28,17.40
2013,08,15,15,29,17.40
2013,08,15,15,30,17.30
2013,08,15,15,31,17.30
2013,08,15,15,32,17.30
2013,08,15,15,33,17.30
2013,08,15,15,34,17.30
2013,08,15,15,35,17.30
2013,08,15,15,36,17.30
2013,08,15,15,37,17.30
2013,08,15,15,38,17.30
2013,08,15,15,39,17.30
2013,08,15,15,40,17.30
2013,08,15,15,41,17.20
2013,08,15,15,42,17.20
2013,08,15,15,43,17.20
2013,08,15,15,44,17.20
2013,08,15,15,45,17.10
2013,08,15,15,46,17.10
2013,08,15,15,47,17.10
2013,08,15,15,48,17.10
2013,08,15,15,49,17.10
2013,08,15,15,50,17.10
2013,08,15,15,51,17.10
2013,08,15,15,52,17.10
2013,08,15,15,53,17.10
2013,08,15,15,54,17.10
2013,08,15,15,55,17.10
2013,08,15,15,56,17.10
2013,08,15,15,57,17.10
2013,08,15,15,58,17.10
2013,08,15,15,59,17.10
2013,08,15,16,00,17.10
2013,08,15,16,01,17.10
2013,08,15,16,02,17.10
2013,08,15,16,03,17.10
2013,08,15,16,04,17.10
2013,08,15,16,05,17.10
2013,08,15,16,06,17.10
2013,08,15,16,07,17.20
2013,08,15,16,08,17.20
2013,08,15,16,09,17.30
2013,08,15,16,10,17.40
2013,08,15,16,11,17.50
2013,08,15,16,12,17.60
2013,08,15,16,13,17.50
2013,08,15,16,14,17.40
2013,08,15,16,15,17.40
2013,08,15,16,16,17.40
2013,08,15,16,17,17.50
2013,08,15,16,18,17.60
2013,08,15,16,19,17.60
2013,08,15,16,20,17.60
2013,08,15,16,21,17.60
2013,08,15,16,22,17.50
2013,08,15,16,23,17.50
2013,08,15,16,24,17.40
2013,08,15,16,25,17.40
2013,08,15,16,26,17.40
2013,08,15,16,27,17.40
2013,08,15,16,28,17.40
2013,08,15,16,29,17.30
2013,08,15,16,30,17.30
2013,08,15,16,31,17.20
2013,08,15,16,32,17.20
2013,08,15,16,33,17.20
2013,08,15,16,34,17.20
2013,08,15,16,35,17.20
2013,08,15,16,36,17.30
2013,08,15,16,37,17.30
2013,08,15,16,38,17.30
2013,08,15,16,39,17.30
2013,08,15,16,40,17.30
2013,08,15,16,41,17.30
2013,08,15,16,42,17.30
2013,08,15,16,43,17.30
2013,08,15,16,44,17.40
2013,08,15,16,45,17.40
2013,08,15,16,46,17.40
2013,08,15,16,47,17.50
2013,08,15,16,48,17.50
2013,08,15,16,49,17.60
2013,08,15,16,50,17.60
2013,08,15,16,51,17.70
2013,08,15,16,52,17.60
2013,08,15,16,53,17.70
2013,08,15,16,54,17.70
2013,08,15,16,55,17.60
2013,08,15,16,56,17.60
2013,08,15,16,57,17.60
2013,08,15,16,58,17.60
2013,08,15,16,59,17.60
2013,08,15,17,00,17.60
2013,08,15,17,01,17.60
2013,08,15,17,02,17.70
2013,08,15,17,03,17.70
2013,08,15,17,04,17.60
2013,08,15,17,05,17.60
2013,08,15,17,06,17.60
2013,08,15,17,07,17.50
2013,08,15,17,08,17.50
2013,08,15,17,09,17.50
2013,08,15,17,10,17.50
2013,08,15,17,11,17.50
2013,08,15,17,12,17.50
2013,08,15,17,13,17.50
2013,08,15,17,14,17.50
2013,08,15,17,15,17.50
2013,08,15,17,16,17.50
2013,08,15,17,17,17.60
2013,08,15,17,18,17.60
2013,08,15,17,19,17.60